Home   Weather   Austin   Past weeks
Flag for USA

Past Weather in Austin, Texas, USA — Yesterday and Last 2 Weeks

Now
33 °F

Clear.


Feels Like: 28 °F
Forecast: 55 / 31 °F
Wind: 6 mph from Northwest

Location: Camp Mabry / Austin City

Current Time: Jan 20, 2019 at 7:09:33 am

Latest Report: Jan 20, 2019 at 5:51 am


Visibility: 10 mi

Pressure: 30.42 "Hg

Humidity: 61%

Dew Point: 21 °F

Location of AustinLocation

Past Weather in Austin — Graph

°F

Austin Temperature Yesterday

Maximum temperature yesterday: 61 °F (at 12:51 am)
Minimum temperature yesterday: 40 °F (at 11:51 pm)
Average temperature yesterday: 50 °F

High & Low Weather Summary for the Past Weeks

 TemperatureHumidityPressure
High76 °F (Jan 7, 1:51 pm)97% (Jan 7, 8:21 am)30.55 "Hg (Jan 7, 8:21 am)
Low33 °F (Jan 20, 5:51 am)24% (Jan 5, 1:51 pm)29.74 "Hg (Jan 18, 5:51 pm)
Average54 °F71%30.19 "Hg
* Reported Jan 5 5:51 am — Jan 20 5:51 am, Austin. Weather by CustomWeather, © 2019

Note: Actual official high and low records may vary slightly from our data, if they occured in-between our weather recording intervals... More about our weather records

Advertising

Austin Weather History for the Previous 24 Hours

Scroll right to see more
 ConditionsComfort  
Time TempWeatherWind HumidityBarometerVisibility
5:51 am
Sun, Jan 20
33 °FClear.6 mph61%30.42 "Hg10 mi
4:51 am34 °FClear.5 mph61%30.41 "Hg10 mi
3:51 am34 °FClear.3 mph61%30.41 "Hg10 mi
2:51 am35 °FClear.3 mph61%30.40 "Hg10 mi
1:51 am36 °FClear.3 mph59%30.40 "Hg10 mi
12:51 am38 °FClear.5 mph53%30.39 "Hg10 mi
11:51 pm
Sat, Jan 19
40 °FClear.5 mph51%30.37 "Hg10 mi
10:51 pm41 °FClear.No wind47%30.35 "Hg10 mi
9:51 pm43 °FClear.5 mph42%30.35 "Hg10 mi
8:51 pm44 °FClear.3 mph41%30.33 "Hg10 mi
7:51 pm46 °FClear.6 mph40%30.29 "Hg10 mi
6:51 pm48 °FClear.8 mph37%30.27 "Hg10 mi
5:51 pm50 °FSunny.10 mph35%30.23 "Hg10 mi
4:51 pm53 °FSunny.15 mph31%30.20 "Hg10 mi
3:51 pm55 °FSunny.16 mph29%30.18 "Hg10 mi
2:51 pm56 °FSunny.14 mph30%30.15 "Hg10 mi
1:51 pm54 °FSunny.13 mph33%30.15 "Hg10 mi
12:51 pm54 °FSunny.15 mph34%30.16 "Hg10 mi
11:51 am52 °FSunny.13 mph40%30.16 "Hg10 mi
10:51 am51 °FSunny.17 mph41%30.17 "Hg10 mi
9:51 am48 °FSunny.14 mph46%30.15 "Hg10 mi
8:51 am45 °FSunny.13 mph51%30.13 "Hg10 mi
7:51 am46 °FOvercast.13 mph58%30.09 "Hg10 mi
Weather by CustomWeather, © 2019

See weather overview

LIVE TOTAL LUNAR ECLIPSE – Watch the eclipse as it happens